Retour au catalogue

BRITE-U UNIBRITE

ActifScienceSSO
NORAD 39092·PAYLOAD·🇮🇱 Israel

Lancé Feb 25, 2013 depuis Satish Dhawan Space Centre

Loading…

Prochains Passages (prochaines 24 heures)

TLE

FraisSource: Space-Track

Époque: Sep 14, 2026, 22:32 UTC

1 39092U 13009G   26257.93900110  .00000098  00000-0  47969-4 0  9997
2 39092  98.4087  75.3191 0008564 336.0520  24.0267 14.36442597709876

Suivez BRITE-U UNIBRITE en temps réel avec AllMySat

Download on the App Store